User: anonymous   Login
Location: Unspecified
(0.0000°N, 0.0000°E)
Time: 09:30:16
(UTC+00:00)
Language:

GGSE 1 - Orbit

View from above orbital plane
View from above orbital plane
View from above satellite
View from above satellite

Ground track
Ground track

The orbit data is extracted from the following two-line orbital elements,

1 00728U 64001B   17295.88587328 -.00000004  00000-0  35815-4 0  9992
2 00728  69.9065 162.3750 0010546  95.7892 264.4416 13.97095287738808
Epoch (UTC): 22 October 2017 21:15:39
Eccentricity: 0.0010546
inclination: 69.9065°
perigee height: 896 km
apogee height: 911 km
right ascension of ascending node: 162.3750°
argument of perigee: 95.7892°
revolutions per day: 13.97095287
mean anomaly at epoch: 264.4416°
orbit number at epoch: 73880

The dashed part of the orbit path shows where the satellite is in the earth's shadow,  

DLR